Time,TemperatureF,DewpointF,PressureIn,WindDirection,WindDirectionDegrees,WindSpeedMPH,WindSpeedGustMPH,Humidity,HourlyPrecipIn,Conditions,Clouds,dailyrainin,SoftwareType,DateUTC
2013-06-09 00:03:00,56.5,47.6,30.12,North,0,0.0,0.0,72,0.00,,,0.00,WUHU216HW,2013-06-09 07:03:00,
2013-06-09 00:08:00,56.3,47.4,30.12,North,0,0.0,0.0,72,0.00,,,0.00,WUHU216HW,2013-06-09 07:08:00,
2013-06-09 00:13:00,56.3,47.4,30.12,North,0,0.0,0.0,72,0.00,,,0.00,WUHU216HW,2013-06-09 07:13:00,
2013-06-09 00:17:00,56.3,47.4,30.12,North,0,0.0,0.0,72,0.00,,,0.00,WUHU216HW,2013-06-09 07:17:00,
2013-06-09 00:22:00,56.3,47.1,30.12,North,0,0.0,0.0,71,0.00,,,0.00,WUHU216HW,2013-06-09 07:22:00,
2013-06-09 00:27:00,56.2,46.9,30.12,North,0,0.0,0.0,71,0.00,,,0.00,WUHU216HW,2013-06-09 07:27:00,
2013-06-09 00:33:00,56.2,46.9,30.12,North,0,0.0,0.0,71,0.00,,,0.00,WUHU216HW,2013-06-09 07:33:00,
2013-06-09 00:37:00,56.2,46.9,30.12,North,0,0.0,0.0,71,0.00,,,0.00,WUHU216HW,2013-06-09 07:37:00,
2013-06-09 00:42:00,56.0,46.7,30.12,North,0,0.0,0.0,71,0.00,,,0.00,WUHU216HW,2013-06-09 07:42:00,
2013-06-09 00:47:00,55.8,46.5,30.12,North,0,0.0,0.0,71,0.00,,,0.00,WUHU216HW,2013-06-09 07:47:00,
2013-06-09 00:52:00,56.0,47.1,30.12,North,0,0.0,0.0,72,0.00,,,0.00,WUHU216HW,2013-06-09 07:52:00,
2013-06-09 00:57:00,56.0,47.1,30.12,North,0,0.0,0.0,72,0.00,,,0.00,WUHU216HW,2013-06-09 07:57:00,
2013-06-09 01:03:00,56.0,47.1,30.12,North,0,0.0,0.0,72,0.00,,,0.00,WUHU216HW,2013-06-09 08:03:00,
2013-06-09 01:08:00,55.8,46.9,30.12,North,0,0.0,0.0,72,0.00,,,0.00,WUHU216HW,2013-06-09 08:08:00,
2013-06-09 01:13:00,55.8,46.9,30.12,North,0,0.0,0.0,72,0.00,,,0.00,WUHU216HW,2013-06-09 08:13:00,
2013-06-09 01:18:00,55.8,46.9,30.12,North,0,0.0,0.0,72,0.00,,,0.00,WUHU216HW,2013-06-09 08:18:00,
2013-06-09 01:23:00,55.6,47.1,30.11,North,0,0.0,0.0,73,0.00,,,0.00,WUHU216HW,2013-06-09 08:23:00,
2013-06-09 01:28:00,55.4,46.9,30.11,North,0,0.0,0.0,73,0.00,,,0.00,WUHU216HW,2013-06-09 08:28:00,
2013-06-09 01:33:00,55.4,46.9,30.11,North,0,0.0,0.0,73,0.00,,,0.00,WUHU216HW,2013-06-09 08:33:00,
2013-06-09 01:38:00,55.4,46.6,30.11,North,0,0.0,0.0,72,0.00,,,0.00,WUHU216HW,2013-06-09 08:38:00,
2013-06-09 01:43:00,55.4,46.6,30.11,North,0,0.0,0.0,72,0.00,,,0.00,WUHU216HW,2013-06-09 08:43:00,
2013-06-09 01:48:00,55.4,46.6,30.11,North,0,0.0,0.0,72,0.00,,,0.00,WUHU216HW,2013-06-09 08:48:00,
2013-06-09 01:53:00,55.4,46.6,30.11,North,0,0.0,0.0,72,0.00,,,0.00,WUHU216HW,2013-06-09 08:53:00,
2013-06-09 01:58:00,55.4,46.6,30.11,North,0,0.0,0.0,72,0.00,,,0.00,WUHU216HW,2013-06-09 08:58:00,
2013-06-09 02:03:00,55.3,46.7,30.11,North,0,0.0,0.0,73,0.00,,,0.00,WUHU216HW,2013-06-09 09:03:00,
2013-06-09 02:08:00,55.1,46.6,30.11,North,0,0.0,0.0,73,0.00,,,0.00,WUHU216HW,2013-06-09 09:08:00,
2013-06-09 02:13:00,55.1,46.6,30.11,North,0,0.0,0.0,73,0.00,,,0.00,WUHU216HW,2013-06-09 09:13:00,
2013-06-09 02:18:00,55.1,46.6,30.11,North,0,0.0,0.0,73,0.00,,,0.00,WUHU216HW,2013-06-09 09:18:00,
2013-06-09 02:23:00,55.1,46.6,30.11,North,0,0.0,0.0,73,0.00,,,0.00,WUHU216HW,2013-06-09 09:23:00,
2013-06-09 02:28:00,54.9,46.5,30.11,North,0,0.0,0.0,73,0.00,,,0.00,WUHU216HW,2013-06-09 09:28:00,
2013-06-09 02:33:00,54.7,46.6,30.11,North,0,0.0,0.0,74,0.00,,,0.00,WUHU216HW,2013-06-09 09:33:00,
2013-06-09 02:38:00,54.7,46.6,30.11,North,0,0.0,0.0,74,0.00,,,0.00,WUHU216HW,2013-06-09 09:38:00,
2013-06-09 02:43:00,54.5,46.5,30.11,North,0,0.0,0.0,74,0.00,,,0.00,WUHU216HW,2013-06-09 09:43:00,
2013-06-09 02:48:00,54.5,46.5,30.11,North,0,0.0,0.0,74,0.00,,,0.00,WUHU216HW,2013-06-09 09:48:00,
2013-06-09 02:53:00,54.4,46.3,30.11,North,0,0.0,0.0,74,0.00,,,0.00,WUHU216HW,2013-06-09 09:53:00,
2013-06-09 02:58:00,54.4,46.6,30.11,North,0,0.0,0.0,75,0.00,,,0.00,WUHU216HW,2013-06-09 09:58:00,
2013-06-09 03:03:00,54.4,46.6,30.11,North,0,0.0,0.0,75,0.00,,,0.00,WUHU216HW,2013-06-09 10:03:00,
2013-06-09 03:08:00,54.2,46.5,30.11,North,0,0.0,0.0,75,0.00,,,0.00,WUHU216HW,2013-06-09 10:08:00,
2013-06-09 03:13:00,54.2,46.5,30.11,North,0,0.0,0.0,75,0.00,,,0.00,WUHU216HW,2013-06-09 10:13:00,
2013-06-09 03:18:00,54.2,46.5,30.11,North,0,0.0,0.0,75,0.00,,,0.00,WUHU216HW,2013-06-09 10:18:00,
2013-06-09 03:23:00,54.2,46.5,30.11,North,0,0.0,0.0,75,0.00,,,0.00,WUHU216HW,2013-06-09 10:23:00,
2013-06-09 03:28:00,54.2,46.5,30.11,North,0,0.0,0.0,75,0.00,,,0.00,WUHU216HW,2013-06-09 10:28:00,
2013-06-09 03:33:00,54.2,46.5,30.11,North,0,0.0,0.0,75,0.00,,,0.00,WUHU216HW,2013-06-09 10:33:00,
2013-06-09 03:38:00,54.2,46.5,30.11,North,0,0.0,0.0,75,0.00,,,0.00,WUHU216HW,2013-06-09 10:38:00,
2013-06-09 03:43:00,54.2,46.5,30.10,North,0,0.0,0.0,75,0.00,,,0.00,WUHU216HW,2013-06-09 10:43:00,
2013-06-09 03:48:00,54.2,46.5,30.10,North,0,0.0,0.0,75,0.00,,,0.00,WUHU216HW,2013-06-09 10:48:00,
2013-06-09 03:53:00,54.0,46.3,30.10,North,0,0.0,0.0,75,0.00,,,0.00,WUHU216HW,2013-06-09 10:53:00,
2013-06-09 03:58:00,54.0,46.3,30.10,North,0,0.0,0.0,75,0.00,,,0.00,WUHU216HW,2013-06-09 10:58:00,
2013-06-09 04:03:00,53.8,46.1,30.09,North,0,0.0,0.0,75,0.00,,,0.00,WUHU216HW,2013-06-09 11:03:00,
2013-06-09 04:08:00,53.8,46.1,30.09,North,0,0.0,0.0,75,0.00,,,0.00,WUHU216HW,2013-06-09 11:08:00,
2013-06-09 04:13:00,53.6,45.9,30.09,North,0,0.0,0.0,75,0.00,,,0.00,WUHU216HW,2013-06-09 11:13:00,
2013-06-09 04:18:00,53.5,45.7,30.09,North,0,0.0,0.0,75,0.00,,,0.00,WUHU216HW,2013-06-09 11:18:00,
2013-06-09 04:23:00,53.3,45.5,30.09,North,0,0.0,0.0,75,0.00,,,0.00,WUHU216HW,2013-06-09 11:23:00,
2013-06-09 04:28:00,53.1,45.4,30.09,North,0,0.0,0.0,75,0.00,,,0.00,WUHU216HW,2013-06-09 11:28:00,
2013-06-09 04:33:00,52.7,45.4,30.09,North,0,0.0,0.0,76,0.00,,,0.00,WUHU216HW,2013-06-09 11:33:00,
2013-06-09 04:38:00,52.6,45.2,30.09,North,0,0.0,0.0,76,0.00,,,0.00,WUHU216HW,2013-06-09 11:38:00,
2013-06-09 04:43:00,52.2,44.9,30.10,North,0,0.0,0.0,76,0.00,,,0.00,WUHU216HW,2013-06-09 11:43:00,
2013-06-09 04:48:00,51.8,45.2,30.10,North,0,0.0,0.0,78,0.00,,,0.00,WUHU216HW,2013-06-09 11:48:00,
2013-06-09 04:53:00,51.8,45.2,30.10,North,0,0.0,0.0,78,0.00,,,0.00,WUHU216HW,2013-06-09 11:53:00,
2013-06-09 04:58:00,51.7,45.0,30.10,North,0,0.0,0.0,78,0.00,,,0.00,WUHU216HW,2013-06-09 11:58:00,
2013-06-09 05:03:00,51.7,45.0,30.11,North,0,0.0,0.0,78,0.00,,,0.00,WUHU216HW,2013-06-09 12:03:00,
2013-06-09 05:08:00,51.8,45.5,30.11,North,0,0.0,0.0,79,0.00,,,0.00,WUHU216HW,2013-06-09 12:08:00,
2013-06-09 05:13:00,51.8,45.5,30.11,North,0,0.0,0.0,79,0.00,,,0.00,WUHU216HW,2013-06-09 12:13:00,
2013-06-09 05:18:00,51.8,45.2,30.11,North,0,0.0,0.0,78,0.00,,,0.00,WUHU216HW,2013-06-09 12:18:00,
2013-06-09 05:23:00,51.8,45.9,30.11,North,0,0.0,0.0,80,0.00,,,0.00,WUHU216HW,2013-06-09 12:23:00,
2013-06-09 05:28:00,51.8,45.9,30.11,North,0,0.0,0.0,80,0.00,,,0.00,WUHU216HW,2013-06-09 12:28:00,
2013-06-09 05:33:00,51.8,45.9,30.11,North,0,0.0,0.0,80,0.00,,,0.00,WUHU216HW,2013-06-09 12:33:00,
2013-06-09 05:38:00,52.0,46.1,30.11,North,0,0.0,0.0,80,0.00,,,0.00,WUHU216HW,2013-06-09 12:38:00,
2013-06-09 05:43:00,52.2,46.3,30.10,North,0,0.0,0.0,80,0.00,,,0.00,WUHU216HW,2013-06-09 12:43:00,
2013-06-09 05:48:00,52.4,46.4,30.10,North,0,0.0,0.0,80,0.00,,,0.00,WUHU216HW,2013-06-09 12:48:00,
2013-06-09 05:53:00,52.4,46.4,30.10,North,0,0.0,0.0,80,0.00,,,0.00,WUHU216HW,2013-06-09 12:53:00,
2013-06-09 05:58:00,52.4,46.1,30.10,North,0,0.0,0.0,79,0.00,,,0.00,WUHU216HW,2013-06-09 12:58:00,
2013-06-09 06:03:00,52.6,46.3,30.10,North,0,0.0,0.0,79,0.00,,,0.00,WUHU216HW,2013-06-09 13:03:00,
2013-06-09 06:08:00,52.6,46.3,30.10,North,0,0.0,0.0,79,0.00,,,0.00,WUHU216HW,2013-06-09 13:08:00,
2013-06-09 06:13:00,52.7,46.4,30.10,North,0,0.0,0.0,79,0.00,,,0.00,WUHU216HW,2013-06-09 13:13:00,
2013-06-09 06:18:00,52.6,46.3,30.10,North,0,0.0,0.0,79,0.00,,,0.00,WUHU216HW,2013-06-09 13:18:00,
2013-06-09 06:23:00,52.7,46.4,30.11,North,0,0.0,0.0,79,0.00,,,0.00,WUHU216HW,2013-06-09 13:23:00,
2013-06-09 06:28:00,52.9,46.6,30.11,North,0,0.0,0.0,79,0.00,,,0.00,WUHU216HW,2013-06-09 13:28:00,
2013-06-09 06:33:00,52.9,46.6,30.10,North,0,0.0,0.0,79,0.00,,,0.00,WUHU216HW,2013-06-09 13:33:00,
2013-06-09 06:38:00,52.9,46.6,30.10,North,0,0.0,0.0,79,0.00,,,0.00,WUHU216HW,2013-06-09 13:38:00,
2013-06-09 06:43:00,52.9,46.3,30.10,North,0,0.0,0.0,78,0.00,,,0.00,WUHU216HW,2013-06-09 13:43:00,
2013-06-09 06:48:00,52.9,46.3,30.10,North,0,0.0,0.0,78,0.00,,,0.00,WUHU216HW,2013-06-09 13:48:00,
2013-06-09 06:53:00,53.1,46.4,30.10,North,0,0.0,0.0,78,0.00,,,0.00,WUHU216HW,2013-06-09 13:53:00,
2013-06-09 06:58:00,53.3,46.6,30.10,North,0,0.0,0.0,78,0.00,,,0.00,WUHU216HW,2013-06-09 13:58:00,
2013-06-09 07:03:00,53.5,46.4,30.10,North,0,0.0,0.0,77,0.00,,,0.00,WUHU216HW,2013-06-09 14:03:00,
2013-06-09 07:09:00,53.5,46.4,30.10,North,0,0.0,0.0,77,0.00,,,0.00,WUHU216HW,2013-06-09 14:09:00,
2013-06-09 07:14:00,53.6,46.6,30.10,North,0,0.0,0.0,77,0.00,,,0.00,WUHU216HW,2013-06-09 14:14:00,
2013-06-09 07:19:00,53.6,46.6,30.10,North,0,0.0,0.0,77,0.00,,,0.00,WUHU216HW,2013-06-09 14:19:00,
2013-06-09 07:24:00,54.0,46.6,30.10,North,0,0.0,0.0,76,0.00,,,0.00,WUHU216HW,2013-06-09 14:24:00,
2013-06-09 07:29:00,54.2,46.8,30.10,North,0,0.0,0.0,76,0.00,,,0.00,WUHU216HW,2013-06-09 14:29:00,
2013-06-09 07:34:00,54.2,46.5,30.11,North,0,0.0,0.0,75,0.00,,,0.00,WUHU216HW,2013-06-09 14:34:00,
2013-06-09 07:39:00,54.0,46.3,30.11,North,0,0.0,0.0,75,0.00,,,0.00,WUHU216HW,2013-06-09 14:39:00,
2013-06-09 07:44:00,54.2,46.5,30.10,North,0,0.0,0.0,75,0.00,,,0.00,WUHU216HW,2013-06-09 14:44:00,
2013-06-09 07:49:00,54.2,46.5,30.11,North,0,0.0,0.0,75,0.00,,,0.00,WUHU216HW,2013-06-09 14:49:00,
2013-06-09 07:54:00,54.4,46.6,30.10,North,0,0.0,0.0,75,0.00,,,0.00,WUHU216HW,2013-06-09 14:54:00,
2013-06-09 07:59:00,54.7,47.3,30.11,North,0,0.0,0.0,76,0.00,,,0.00,WUHU216HW,2013-06-09 14:59:00,
2013-06-09 08:04:00,54.7,46.9,30.11,North,0,0.0,0.0,75,0.00,,,0.00,WUHU216HW,2013-06-09 15:04:00,
2013-06-09 08:09:00,55.1,47.3,30.11,North,0,0.0,0.0,75,0.00,,,0.00,WUHU216HW,2013-06-09 15:09:00,
2013-06-09 08:14:00,55.3,47.1,30.11,North,0,0.0,0.0,74,0.00,,,0.00,WUHU216HW,2013-06-09 15:14:00,
2013-06-09 08:19:00,55.6,47.4,30.11,North,0,0.0,0.0,74,0.00,,,0.00,WUHU216HW,2013-06-09 15:19:00,
2013-06-09 08:24:00,55.8,47.6,30.11,North,0,0.0,0.0,74,0.00,,,0.00,WUHU216HW,2013-06-09 15:24:00,
2013-06-09 08:29:00,56.0,47.8,30.11,North,0,0.0,0.0,74,0.00,,,0.00,WUHU216HW,2013-06-09 15:29:00,
2013-06-09 08:34:00,56.2,48.0,30.11,North,0,0.0,0.0,74,0.00,,,0.00,WUHU216HW,2013-06-09 15:34:00,
2013-06-09 08:39:00,56.5,48.0,30.11,North,0,0.0,0.0,73,0.00,,,0.00,WUHU216HW,2013-06-09 15:39:00,
2013-06-09 08:44:00,56.7,48.1,30.11,North,0,0.0,0.0,73,0.00,,,0.00,WUHU216HW,2013-06-09 15:44:00,
2013-06-09 08:49:00,57.1,48.4,30.11,North,0,0.0,0.0,73,0.00,,,0.00,WUHU216HW,2013-06-09 15:49:00,
2013-06-09 08:54:00,57.6,48.2,30.11,North,0,0.0,0.0,71,0.00,,,0.00,WUHU216HW,2013-06-09 15:54:00,
2013-06-09 08:59:00,57.6,47.9,30.11,North,0,0.0,0.0,70,0.00,,,0.00,WUHU216HW,2013-06-09 15:59:00,
2013-06-09 09:04:00,57.8,48.1,30.11,North,0,0.0,0.0,70,0.00,,,0.00,WUHU216HW,2013-06-09 16:04:00,
2013-06-09 09:09:00,56.9,46.8,30.11,North,0,0.0,0.0,69,0.00,,,0.00,WUHU216HW,2013-06-09 16:09:00,
2013-06-09 09:14:00,56.2,46.9,30.11,North,0,0.0,0.0,71,0.00,,,0.00,WUHU216HW,2013-06-09 16:14:00,
2013-06-09 09:19:00,56.5,47.3,30.11,North,0,0.0,0.0,71,0.00,,,0.00,WUHU216HW,2013-06-09 16:19:00,
2013-06-09 09:24:00,56.5,47.3,30.11,North,0,0.0,0.0,71,0.00,,,0.00,WUHU216HW,2013-06-09 16:24:00,
2013-06-09 09:29:00,56.7,47.1,30.11,North,0,0.0,0.0,70,0.00,,,0.00,WUHU216HW,2013-06-09 16:29:00,
2013-06-09 09:34:00,56.7,47.1,30.11,North,0,0.0,0.0,70,0.00,,,0.00,WUHU216HW,2013-06-09 16:34:00,
2013-06-09 09:39:00,56.5,46.9,30.11,North,0,0.0,0.0,70,0.00,,,0.00,WUHU216HW,2013-06-09 16:39:00,
2013-06-09 09:44:00,57.1,47.3,30.11,North,0,0.0,0.0,70,0.00,,,0.00,WUHU216HW,2013-06-09 16:44:00,
2013-06-09 09:49:00,57.2,47.5,30.11,North,0,0.0,0.0,70,0.00,,,0.00,WUHU216HW,2013-06-09 16:49:00,
2013-06-09 09:54:00,57.8,48.1,30.11,North,0,0.0,0.0,70,0.00,,,0.00,WUHU216HW,2013-06-09 16:54:00,
2013-06-09 09:59:00,58.1,47.6,30.11,North,0,0.0,0.0,68,0.00,,,0.00,WUHU216HW,2013-06-09 16:59:00,
2013-06-09 10:04:00,58.3,48.2,30.11,North,0,0.0,0.0,69,0.00,,,0.00,WUHU216HW,2013-06-09 17:04:00,
2013-06-09 10:09:00,58.5,48.0,30.11,North,0,0.0,0.0,68,0.00,,,0.00,WUHU216HW,2013-06-09 17:09:00,
2013-06-09 10:14:00,58.3,47.3,30.11,North,0,0.0,0.0,67,0.00,,,0.00,WUHU216HW,2013-06-09 17:14:00,
2013-06-09 10:19:00,58.9,48.3,30.11,North,0,0.0,0.0,68,0.00,,,0.00,WUHU216HW,2013-06-09 17:19:00,
2013-06-09 10:24:00,59.2,48.2,30.11,North,0,0.0,0.0,67,0.00,,,0.00,WUHU216HW,2013-06-09 17:24:00,
2013-06-09 10:29:00,59.4,47.6,30.11,North,0,0.0,0.0,65,0.00,,,0.00,WUHU216HW,2013-06-09 17:29:00,
2013-06-09 10:35:00,59.2,47.4,30.12,North,0,0.0,0.0,65,0.00,,,0.00,WUHU216HW,2013-06-09 17:35:00,
2013-06-09 10:40:00,59.2,47.9,30.11,North,0,0.0,0.0,66,0.00,,,0.00,WUHU216HW,2013-06-09 17:40:00,
2013-06-09 10:45:00,59.4,47.6,30.11,North,0,0.0,0.0,65,0.00,,,0.00,WUHU216HW,2013-06-09 17:45:00,
2013-06-09 10:50:00,59.9,48.2,30.11,North,0,0.0,0.0,65,0.00,,,0.00,WUHU216HW,2013-06-09 17:50:00,
2013-06-09 10:55:00,59.9,48.6,30.11,North,0,0.0,0.0,66,0.00,,,0.00,WUHU216HW,2013-06-09 17:55:00,
2013-06-09 11:00:00,60.1,48.3,30.12,North,0,0.0,0.0,65,0.00,,,0.00,WUHU216HW,2013-06-09 18:00:00,
2013-06-09 11:05:00,60.3,48.5,30.12,North,0,0.0,0.0,65,0.00,,,0.00,WUHU216HW,2013-06-09 18:05:00,
2013-06-09 11:10:00,60.8,49.1,30.11,North,0,0.0,0.0,65,0.00,,,0.00,WUHU216HW,2013-06-09 18:10:00,
2013-06-09 11:15:00,60.8,49.1,30.12,North,0,0.0,0.0,65,0.00,,,0.00,WUHU216HW,2013-06-09 18:15:00,
2013-06-09 11:20:00,60.8,48.6,30.12,North,0,0.0,0.0,64,0.00,,,0.00,WUHU216HW,2013-06-09 18:20:00,
2013-06-09 11:25:00,60.5,48.7,30.12,North,0,0.0,0.0,65,0.00,,,0.00,WUHU216HW,2013-06-09 18:25:00,
2013-06-09 11:30:00,61.0,49.2,30.12,North,0,0.0,0.0,65,0.00,,,0.00,WUHU216HW,2013-06-09 18:30:00,
2013-06-09 11:35:00,61.6,48.4,30.12,North,0,0.0,0.0,62,0.00,,,0.00,WUHU216HW,2013-06-09 18:35:00,
2013-06-09 11:40:00,61.6,48.4,30.12,North,0,0.0,0.0,62,0.00,,,0.00,WUHU216HW,2013-06-09 18:40:00,
2013-06-09 11:45:00,61.6,48.9,30.11,North,0,0.0,0.0,63,0.00,,,0.00,WUHU216HW,2013-06-09 18:45:00,
2013-06-09 11:50:00,62.1,49.8,30.11,North,0,0.0,0.0,64,0.00,,,0.00,WUHU216HW,2013-06-09 18:50:00,
2013-06-09 11:55:00,61.7,48.6,30.11,North,0,0.0,0.0,62,0.00,,,0.00,WUHU216HW,2013-06-09 18:55:00,
2013-06-09 12:00:00,61.0,48.4,30.11,North,0,0.0,0.0,63,0.00,,,0.00,WUHU216HW,2013-06-09 19:00:00,
2013-06-09 12:05:00,61.0,48.4,30.11,North,0,0.0,0.0,63,0.00,,,0.00,WUHU216HW,2013-06-09 19:05:00,
2013-06-09 12:10:00,61.2,48.5,30.12,North,0,0.0,0.0,63,0.00,,,0.00,WUHU216HW,2013-06-09 19:10:00,
2013-06-09 12:15:00,61.6,48.9,30.11,North,0,0.0,0.0,63,0.00,,,0.00,WUHU216HW,2013-06-09 19:15:00,
2013-06-09 12:20:00,62.3,49.2,30.11,North,0,0.0,0.0,62,0.00,,,0.00,WUHU216HW,2013-06-09 19:20:00,
2013-06-09 12:25:00,63.0,49.8,30.11,North,0,0.0,0.0,62,0.00,,,0.00,WUHU216HW,2013-06-09 19:25:00,
2013-06-09 12:30:00,63.4,48.8,30.11,North,0,0.0,0.0,59,0.00,,,0.00,WUHU216HW,2013-06-09 19:30:00,
2013-06-09 12:35:00,63.0,49.0,30.11,North,0,0.0,0.0,60,0.00,,,0.00,WUHU216HW,2013-06-09 19:35:00,
2013-06-09 12:40:00,63.4,49.7,30.11,North,0,0.0,0.0,61,0.00,,,0.00,WUHU216HW,2013-06-09 19:40:00,
2013-06-09 12:45:00,63.2,49.1,30.11,North,0,0.0,0.0,60,0.00,,,0.00,WUHU216HW,2013-06-09 19:45:00,
2013-06-09 12:50:00,63.0,48.4,30.11,North,0,0.0,0.0,59,0.00,,,0.00,WUHU216HW,2013-06-09 19:50:00,
2013-06-09 12:55:00,62.6,49.1,30.11,North,0,0.0,0.0,61,0.00,,,0.00,WUHU216HW,2013-06-09 19:55:00,
2013-06-09 13:00:00,63.0,49.8,30.11,North,0,0.0,0.0,62,0.00,,,0.00,WUHU216HW,2013-06-09 20:00:00,
2013-06-09 13:05:00,62.8,49.1,30.11,North,0,0.0,0.0,61,0.00,,,0.00,WUHU216HW,2013-06-09 20:05:00,
2013-06-09 13:10:00,62.6,49.1,30.11,North,0,0.0,0.0,61,0.00,,,0.00,WUHU216HW,2013-06-09 20:10:00,
2013-06-09 13:15:00,63.7,49.6,30.10,North,0,0.0,0.0,60,0.00,,,0.00,WUHU216HW,2013-06-09 20:15:00,
2013-06-09 13:20:00,63.7,50.1,30.10,North,0,0.0,0.0,61,0.00,,,0.00,WUHU216HW,2013-06-09 20:20:00,
2013-06-09 13:25:00,64.1,49.4,30.10,North,0,0.0,0.0,59,0.00,,,0.00,WUHU216HW,2013-06-09 20:25:00,
2013-06-09 13:30:00,63.4,49.2,30.10,North,0,0.0,0.0,60,0.00,,,0.00,WUHU216HW,2013-06-09 20:30:00,
2013-06-09 13:35:00,62.8,48.8,30.10,North,0,0.0,0.0,60,0.00,,,0.00,WUHU216HW,2013-06-09 20:35:00,
2013-06-09 13:40:00,62.6,48.6,30.10,North,0,0.0,0.0,60,0.00,,,0.00,WUHU216HW,2013-06-09 20:40:00,
2013-06-09 13:45:00,63.0,49.0,30.10,North,0,0.0,0.0,60,0.00,,,0.00,WUHU216HW,2013-06-09 20:45:00,
2013-06-09 13:50:00,63.7,49.6,30.10,North,0,0.0,0.0,60,0.00,,,0.00,WUHU216HW,2013-06-09 20:50:00,
2013-06-09 13:55:00,64.4,49.2,30.09,North,0,0.0,0.0,58,0.00,,,0.00,WUHU216HW,2013-06-09 20:55:00,
2013-06-09 14:00:00,64.1,49.0,30.09,North,0,0.0,0.0,58,0.00,,,0.00,WUHU216HW,2013-06-09 21:00:00,
2013-06-09 14:05:00,64.4,49.2,30.09,North,0,0.0,0.0,58,0.00,,,0.00,WUHU216HW,2013-06-09 21:05:00,
2013-06-09 14:10:00,64.1,49.4,30.09,North,0,0.0,0.0,59,0.00,,,0.00,WUHU216HW,2013-06-09 21:10:00,
2013-06-09 14:15:00,63.7,48.6,30.09,North,0,0.0,0.0,58,0.00,,,0.00,WUHU216HW,2013-06-09 21:15:00,
2013-06-09 14:20:00,63.9,49.2,30.09,North,0,0.0,0.0,59,0.00,,,0.00,WUHU216HW,2013-06-09 21:20:00,
2013-06-09 14:25:00,64.4,48.2,30.09,North,0,0.0,0.0,56,0.00,,,0.00,WUHU216HW,2013-06-09 21:25:00,
2013-06-09 14:32:00,64.6,48.0,30.09,North,0,0.0,0.0,55,0.00,,,0.00,WUHU216HW,2013-06-09 21:32:00,
2013-06-09 14:37:00,65.3,49.1,30.09,North,0,0.0,0.0,56,0.00,,,0.00,WUHU216HW,2013-06-09 21:37:00,
2013-06-09 14:43:00,66.2,48.6,30.08,North,0,0.0,0.0,53,0.00,,,0.00,WUHU216HW,2013-06-09 21:43:00,
2013-06-09 14:48:00,65.9,48.2,30.08,North,0,0.0,0.0,53,0.00,,,0.00,WUHU216HW,2013-06-09 21:48:00,
2013-06-09 14:53:00,66.1,48.4,30.08,North,0,0.0,0.0,53,0.00,,,0.00,WUHU216HW,2013-06-09 21:53:00,
2013-06-09 14:58:00,66.4,48.8,30.08,North,0,0.0,0.0,53,0.00,,,0.00,WUHU216HW,2013-06-09 21:58:00,
2013-06-09 15:03:00,66.2,48.2,30.08,North,0,0.0,0.0,52,0.00,,,0.00,WUHU216HW,2013-06-09 22:03:00,
2013-06-09 15:08:00,66.2,47.6,30.08,North,0,0.0,0.0,51,0.00,,,0.00,WUHU216HW,2013-06-09 22:08:00,
2013-06-09 15:13:00,65.9,47.8,30.08,North,0,0.0,0.0,52,0.00,,,0.00,WUHU216HW,2013-06-09 22:13:00,
2013-06-09 15:18:00,66.4,46.7,30.08,North,0,0.0,0.0,49,0.00,,,0.00,WUHU216HW,2013-06-09 22:18:00,
2013-06-09 15:23:00,66.1,48.0,30.08,North,0,0.0,0.0,52,0.00,,,0.00,WUHU216HW,2013-06-09 22:23:00,
2013-06-09 15:28:00,66.6,48.0,30.08,North,0,0.0,0.0,51,0.00,,,0.00,WUHU216HW,2013-06-09 22:28:00,
2013-06-09 15:33:00,66.6,48.0,30.08,North,0,0.0,0.0,51,0.00,,,0.00,WUHU216HW,2013-06-09 22:33:00,
2013-06-09 15:38:00,66.6,47.5,30.08,North,0,0.0,0.0,50,0.00,,,0.00,WUHU216HW,2013-06-09 22:38:00,
2013-06-09 15:43:00,67.0,46.6,30.08,North,0,0.0,0.0,48,0.00,,,0.00,WUHU216HW,2013-06-09 22:43:00,
2013-06-09 15:48:00,66.1,46.4,30.08,North,0,0.0,0.0,49,0.00,,,0.00,WUHU216HW,2013-06-09 22:48:00,
2013-06-09 15:53:00,65.9,46.8,30.08,North,0,0.0,0.0,50,0.00,,,0.00,WUHU216HW,2013-06-09 22:53:00,
2013-06-09 15:58:00,66.6,47.5,30.08,North,0,0.0,0.0,50,0.00,,,0.00,WUHU216HW,2013-06-09 22:58:00,
2013-06-09 16:03:00,66.4,46.7,30.07,North,0,0.0,0.0,49,0.00,,,0.00,WUHU216HW,2013-06-09 23:03:00,
2013-06-09 16:08:00,65.7,47.1,30.07,North,0,0.0,0.0,51,0.00,,,0.00,WUHU216HW,2013-06-09 23:08:00,
2013-06-09 16:13:00,65.9,47.3,30.07,North,0,0.0,0.0,51,0.00,,,0.00,WUHU216HW,2013-06-09 23:13:00,
2013-06-09 16:18:00,67.0,47.8,30.07,North,0,0.0,0.0,50,0.00,,,0.00,WUHU216HW,2013-06-09 23:18:00,
2013-06-09 16:23:00,67.7,47.9,30.06,North,0,0.0,0.0,49,0.00,,,0.00,WUHU216HW,2013-06-09 23:23:00,
2013-06-09 16:28:00,67.5,47.1,30.06,North,0,0.0,0.0,48,0.00,,,0.00,WUHU216HW,2013-06-09 23:28:00,
2013-06-09 16:33:00,67.7,47.3,30.07,North,0,0.0,0.0,48,0.00,,,0.00,WUHU216HW,2013-06-09 23:33:00,
2013-06-09 16:38:00,67.3,48.2,30.07,North,0,0.0,0.0,50,0.00,,,0.00,WUHU216HW,2013-06-09 23:38:00,
2013-06-09 16:43:00,68.0,48.8,30.08,North,0,0.0,0.0,50,0.00,,,0.00,WUHU216HW,2013-06-09 23:43:00,
2013-06-09 16:48:00,69.1,48.0,30.08,North,0,0.0,0.0,47,0.00,,,0.00,WUHU216HW,2013-06-09 23:48:00,
2013-06-09 16:53:00,68.4,47.9,30.07,North,0,0.0,0.0,48,0.00,,,0.00,WUHU216HW,2013-06-09 23:53:00,
2013-06-09 16:58:00,67.7,47.3,30.07,North,0,0.0,0.0,48,0.00,,,0.00,WUHU216HW,2013-06-09 23:58:00,
2013-06-09 17:03:00,68.4,46.7,30.07,North,0,0.0,0.0,46,0.00,,,0.00,WUHU216HW,2013-06-10 00:03:00,
2013-06-09 17:08:00,68.8,46.4,30.07,North,0,0.0,0.0,45,0.00,,,0.00,WUHU216HW,2013-06-10 00:08:00,
2013-06-09 17:13:00,71.1,50.3,30.07,North,0,0.0,0.0,48,0.00,,,0.00,WUHU216HW,2013-06-10 00:13:00,
2013-06-09 17:18:00,72.4,49.7,30.06,North,0,0.0,0.0,45,0.00,,,0.00,WUHU216HW,2013-06-10 00:18:00,
2013-06-09 17:23:00,71.6,49.7,30.06,North,0,0.0,0.0,46,0.00,,,0.00,WUHU216HW,2013-06-10 00:23:00,
2013-06-09 17:28:00,71.1,49.8,30.06,North,0,0.0,0.0,47,0.00,,,0.00,WUHU216HW,2013-06-10 00:28:00,
2013-06-09 17:33:00,71.5,50.0,30.06,North,0,0.0,0.0,47,0.00,,,0.00,WUHU216HW,2013-06-10 00:33:00,
2013-06-09 17:38:00,71.6,48.4,30.06,North,0,0.0,0.0,44,0.00,,,0.00,WUHU216HW,2013-06-10 00:38:00,
2013-06-09 17:43:00,69.7,47.3,30.06,North,0,0.0,0.0,45,0.00,,,0.00,WUHU216HW,2013-06-10 00:43:00,
2013-06-09 17:48:00,69.3,47.5,30.06,North,0,0.0,0.0,46,0.00,,,0.00,WUHU216HW,2013-06-10 00:48:00,
2013-06-09 17:53:00,70.4,47.9,30.06,North,0,0.0,0.0,45,0.00,,,0.00,WUHU216HW,2013-06-10 00:53:00,
2013-06-09 17:58:00,72.0,49.4,30.06,North,0,0.0,0.0,45,0.00,,,0.00,WUHU216HW,2013-06-10 00:58:00,
2013-06-09 18:03:00,74.0,48.8,30.06,North,0,0.0,0.0,41,0.00,,,0.00,WUHU216HW,2013-06-10 01:03:00,
2013-06-09 18:08:00,73.1,48.6,30.06,North,0,0.0,0.0,42,0.00,,,0.00,WUHU216HW,2013-06-10 01:08:00,
2013-06-09 18:13:00,73.1,49.1,30.06,North,0,0.0,0.0,43,0.00,,,0.00,WUHU216HW,2013-06-10 01:13:00,
2013-06-09 18:18:00,74.5,51.1,30.05,North,0,0.0,0.0,44,0.00,,,0.00,WUHU216HW,2013-06-10 01:18:00,
2013-06-09 18:23:00,75.8,49.8,30.05,North,0,0.0,0.0,40,0.00,,,0.00,WUHU216HW,2013-06-10 01:23:00,
2013-06-09 18:28:00,75.1,49.1,30.05,North,0,0.0,0.0,40,0.00,,,0.00,WUHU216HW,2013-06-10 01:28:00,
2013-06-09 18:33:00,74.5,48.7,30.05,North,0,0.0,0.0,40,0.00,,,0.00,WUHU216HW,2013-06-10 01:33:00,
2013-06-09 18:38:00,74.9,48.2,30.05,North,0,0.0,0.0,39,0.00,,,0.00,WUHU216HW,2013-06-10 01:38:00,
2013-06-09 18:43:00,75.2,49.3,30.05,North,0,0.0,0.0,40,0.00,,,0.00,WUHU216HW,2013-06-10 01:43:00,
2013-06-09 18:48:00,75.6,49.7,30.05,North,0,0.0,0.0,40,0.00,,,0.00,WUHU216HW,2013-06-10 01:48:00,
2013-06-09 18:53:00,75.2,50.0,30.04,North,0,0.0,0.0,41,0.00,,,0.00,WUHU216HW,2013-06-10 01:53:00,
2013-06-09 18:58:00,74.9,50.2,30.04,North,0,0.0,0.0,42,0.00,,,0.00,WUHU216HW,2013-06-10 01:58:00,
2013-06-09 19:03:00,74.9,49.6,30.04,North,0,0.0,0.0,41,0.00,,,0.00,WUHU216HW,2013-06-10 02:03:00,
2013-06-09 19:08:00,72.5,48.7,30.04,North,0,0.0,0.0,43,0.00,,,0.00,WUHU216HW,2013-06-10 02:08:00,
2013-06-09 19:13:00,71.3,49.3,30.04,North,0,0.0,0.0,46,0.00,,,0.00,WUHU216HW,2013-06-10 02:13:00,
2013-06-09 19:18:00,69.7,49.1,30.04,North,0,0.0,0.0,48,0.00,,,0.00,WUHU216HW,2013-06-10 02:18:00,
2013-06-09 19:23:00,70.2,49.5,30.04,North,0,0.0,0.0,48,0.00,,,0.00,WUHU216HW,2013-06-10 02:23:00,
2013-06-09 19:28:00,69.5,48.9,30.04,North,0,0.0,0.0,48,0.00,,,0.00,WUHU216HW,2013-06-10 02:28:00,
2013-06-09 19:33:00,69.3,48.7,30.04,North,0,0.0,0.0,48,0.00,,,0.00,WUHU216HW,2013-06-10 02:33:00,
2013-06-09 19:38:00,68.8,48.2,30.04,North,0,0.0,0.0,48,0.00,,,0.00,WUHU216HW,2013-06-10 02:38:00,
2013-06-09 19:43:00,67.9,48.1,30.04,North,0,0.0,0.0,49,0.00,,,0.00,WUHU216HW,2013-06-10 02:43:00,
2013-06-09 19:48:00,68.8,48.9,30.05,North,0,0.0,0.0,49,0.00,,,0.00,WUHU216HW,2013-06-10 02:48:00,
2013-06-09 19:53:00,69.1,48.0,30.05,North,0,0.0,0.0,47,0.00,,,0.00,WUHU216HW,2013-06-10 02:53:00,
2013-06-09 19:58:00,67.9,46.8,30.05,North,0,0.0,0.0,47,0.00,,,0.00,WUHU216HW,2013-06-10 02:58:00,
2013-06-09 20:03:00,65.9,46.2,30.05,North,0,0.0,0.0,49,0.00,,,0.00,WUHU216HW,2013-06-10 03:03:00,
2013-06-09 20:08:00,64.6,46.0,30.05,North,0,0.0,0.0,51,0.00,,,0.00,WUHU216HW,2013-06-10 03:08:00,
2013-06-09 20:13:00,63.7,45.7,30.05,North,0,0.0,0.0,52,0.00,,,0.00,WUHU216HW,2013-06-10 03:13:00,
2013-06-09 20:18:00,63.2,46.2,30.04,North,0,0.0,0.0,54,0.00,,,0.00,WUHU216HW,2013-06-10 03:18:00,
2013-06-09 20:23:00,62.6,46.2,30.04,North,0,0.0,0.0,55,0.00,,,0.00,WUHU216HW,2013-06-10 03:23:00,
2013-06-09 20:28:00,61.9,46.0,30.04,North,0,0.0,0.0,56,0.00,,,0.00,WUHU216HW,2013-06-10 03:28:00,
2013-06-09 20:33:00,61.2,46.4,30.04,North,0,0.0,0.0,58,0.00,,,0.00,WUHU216HW,2013-06-10 03:33:00,
2013-06-09 20:38:00,60.5,46.2,30.04,North,0,0.0,0.0,59,0.00,,,0.00,WUHU216HW,2013-06-10 03:38:00,
2013-06-09 20:43:00,59.8,45.5,30.04,North,0,0.0,0.0,59,0.00,,,0.00,WUHU216HW,2013-06-10 03:43:00,
2013-06-09 20:48:00,59.4,45.1,30.04,North,0,0.0,0.0,59,0.00,,,0.00,WUHU216HW,2013-06-10 03:48:00,
2013-06-09 20:53:00,59.0,45.2,30.04,North,0,0.0,0.0,60,0.00,,,0.00,WUHU216HW,2013-06-10 03:53:00,
2013-06-09 20:58:00,58.7,44.8,30.04,North,0,0.0,0.0,60,0.00,,,0.00,WUHU216HW,2013-06-10 03:58:00,
2013-06-09 21:01:00,58.3,44.9,30.05,North,0,0.0,0.0,61,0.00,,,0.00,WUHU216HW,2013-06-10 04:01:00,
2013-06-09 21:02:00,58.1,44.4,30.05,North,0,0.0,0.0,60,0.00,,,0.00,WUHU216HW,2013-06-10 04:02:00,
2013-06-09 21:07:00,58.0,44.7,30.05,North,0,0.0,0.0,61,0.00,,,0.00,WUHU216HW,2013-06-10 04:07:00,
2013-06-09 21:12:00,57.4,44.6,30.05,North,0,0.0,0.0,62,0.00,,,0.00,WUHU216HW,2013-06-10 04:12:00,
2013-06-09 21:17:00,56.9,44.4,30.05,North,0,0.0,0.0,63,0.00,,,0.00,WUHU216HW,2013-06-10 04:17:00,
2013-06-09 21:22:00,56.5,44.0,30.05,North,0,0.0,0.0,63,0.00,,,0.00,WUHU216HW,2013-06-10 04:22:00,
2013-06-09 21:28:00,56.2,43.8,30.05,North,0,0.0,0.0,63,0.00,,,0.00,WUHU216HW,2013-06-10 04:28:00,
2013-06-09 21:33:00,55.8,43.4,30.05,North,0,0.0,0.0,63,0.00,,,0.00,WUHU216HW,2013-06-10 04:33:00,
2013-06-09 21:40:00,55.4,43.0,30.05,North,0,0.0,0.0,63,0.00,,,0.00,WUHU216HW,2013-06-10 04:40:00,
2013-06-09 21:45:00,55.3,42.9,30.06,North,0,0.0,0.0,63,0.00,,,0.00,WUHU216HW,2013-06-10 04:45:00,
2013-06-09 21:50:00,55.1,43.1,30.06,North,0,0.0,0.0,64,0.00,,,0.00,WUHU216HW,2013-06-10 04:50:00,
2013-06-09 21:55:00,54.7,42.8,30.06,North,0,0.0,0.0,64,0.00,,,0.00,WUHU216HW,2013-06-10 04:55:00,
2013-06-09 22:00:00,54.5,43.4,30.06,North,0,0.0,0.0,66,0.00,,,0.00,WUHU216HW,2013-06-10 05:00:00,
2013-06-09 22:05:00,54.4,43.7,30.06,North,0,0.0,0.0,67,0.00,,,0.00,WUHU216HW,2013-06-10 05:05:00,
2013-06-09 22:10:00,54.4,43.7,30.06,North,0,0.0,0.0,67,0.00,,,0.00,WUHU216HW,2013-06-10 05:10:00,
2013-06-09 22:15:00,54.2,43.8,30.06,North,0,0.0,0.0,68,0.00,,,0.00,WUHU216HW,2013-06-10 05:15:00,
2013-06-09 22:20:00,54.0,43.7,30.06,North,0,0.0,0.0,68,0.00,,,0.00,WUHU216HW,2013-06-10 05:20:00,
2013-06-09 22:25:00,53.8,43.9,30.06,North,0,0.0,0.0,69,0.00,,,0.00,WUHU216HW,2013-06-10 05:25:00,
2013-06-09 22:30:00,53.8,43.5,30.06,North,0,0.0,0.0,68,0.00,,,0.00,WUHU216HW,2013-06-10 05:30:00,
2013-06-09 22:35:00,53.6,43.8,30.06,North,0,0.0,0.0,69,0.00,,,0.00,WUHU216HW,2013-06-10 05:35:00,
2013-06-09 22:40:00,53.6,43.8,30.06,North,0,0.0,0.0,69,0.00,,,0.00,WUHU216HW,2013-06-10 05:40:00,
2013-06-09 22:45:00,53.6,43.8,30.06,North,0,0.0,0.0,69,0.00,,,0.00,WUHU216HW,2013-06-10 05:45:00,
2013-06-09 22:50:00,53.6,43.8,30.06,North,0,0.0,0.0,69,0.00,,,0.00,WUHU216HW,2013-06-10 05:50:00,
2013-06-09 22:55:00,53.6,44.1,30.06,North,0,0.0,0.0,70,0.00,,,0.00,WUHU216HW,2013-06-10 05:55:00,
2013-06-09 23:00:00,53.6,43.8,30.06,North,0,0.0,0.0,69,0.00,,,0.00,WUHU216HW,2013-06-10 06:00:00,
2013-06-09 23:05:00,53.8,43.9,30.06,North,0,0.0,0.0,69,0.00,,,0.00,WUHU216HW,2013-06-10 06:05:00,
2013-06-09 23:10:00,53.8,43.9,30.06,North,0,0.0,0.0,69,0.00,,,0.00,WUHU216HW,2013-06-10 06:10:00,
2013-06-09 23:15:00,53.8,43.9,30.06,North,0,0.0,0.0,69,0.00,,,0.00,WUHU216HW,2013-06-10 06:15:00,
2013-06-09 23:20:00,53.8,44.3,30.06,North,0,0.0,0.0,70,0.00,,,0.00,WUHU216HW,2013-06-10 06:20:00,
2013-06-09 23:25:00,53.6,44.1,30.06,North,0,0.0,0.0,70,0.00,,,0.00,WUHU216HW,2013-06-10 06:25:00,
2013-06-09 23:30:00,53.6,44.1,30.06,North,0,0.0,0.0,70,0.00,,,0.00,WUHU216HW,2013-06-10 06:30:00,
2013-06-09 23:35:00,53.6,44.1,30.06,North,0,0.0,0.0,70,0.00,,,0.00,WUHU216HW,2013-06-10 06:35:00,
2013-06-09 23:40:00,53.6,44.5,30.06,North,0,0.0,0.0,71,0.00,,,0.00,WUHU216HW,2013-06-10 06:40:00,
2013-06-09 23:45:00,53.6,43.8,30.06,North,0,0.0,0.0,69,0.00,,,0.00,WUHU216HW,2013-06-10 06:45:00,
2013-06-09 23:50:00,53.6,44.1,30.06,North,0,0.0,0.0,70,0.00,,,0.00,WUHU216HW,2013-06-10 06:50:00,
2013-06-09 23:55:00,53.6,44.1,30.06,North,0,0.0,0.0,70,0.00,,,0.00,WUHU216HW,2013-06-10 06:55:00,